Flag for Australia Weather past 2 weeks in Canberra, Australian Capital Territory, Australia

Now
36 °F

Clear.


Feels Like: 36 °F
Forecast: 35 / 66 °F
Wind: 1 mph from North

Location: Canberra Airport

Current Time: Oct 2, 2014 at 2:05:23 AM

Latest Report: Oct 2, 2014 at 1:00 AM


Visibility: N/A

Pressure: 30.18 "Hg

Humidity: 81%

Dew point: 30 °F

Location of CanberraLocation

Historic Weather in Canberra — Graph

°F

Canberra temperature yesterday

Maximum temperature yesterday: 63 °F (at 2:30 PM)
Minimum temperature yesterday: 37 °F (at 10:30 PM)
Average temperature yesterday: 51 °F

Past Weeks' High & Low Weather Summary

 TemperatureHumidityPressure
High73 °F (Sep 29, 12:30 PM)100% (Sep 20, 5:30 AM)30.45 "Hg (Sep 20, 5:30 AM)
Low27 °F (Sep 19, 3:30 AM)21% (Oct 1, 11:30 AM)29.77 "Hg (Sep 30, 9:30 PM)
Average52 °F67%30.10 "Hg
* Reported Sep 17 1:00 AM — Oct 2 1:00 AM, Canberra, Weather by CustomWeather, © 2014

Note: Actual official high and low records may vary slightly from our data, if they occured in-between our weather recording intervals... More about our weather records

Advertising

Canberra weather history for previous 24 hours

 ConditionsComfort  
Time TempWeatherWind HumidityBarometerVisibility
1:00 AM
Oct 2
36 °FClear.1 mph81%30.18 "HgN/A
12:30 AM36 °FClear.3 mph81%30.18 "HgN/A
12:00 AM36 °FClear.2 mph81%30.21 "HgN/A
11:30 PM
Oct 1
39 °FClear.No wind81%30.18 "HgN/A
11:00 PM37 °FClear.2 mph81%30.18 "HgN/A
10:30 PM37 °FClear.7 mph81%30.18 "HgN/A
10:00 PM41 °FClear.5 mph66%30.18 "HgN/A
9:30 PM45 °FClear.8 mph66%30.18 "HgN/A
9:00 PM45 °FClear.9 mph66%30.18 "HgN/A
8:30 PM46 °FClear.12 mph66%30.15 "Hg10 mi
8:00 PM48 °FClear.10 mph58%30.15 "Hg10 mi
7:30 PM50 °FClear.13 mph58%30.15 "Hg10 mi
7:00 PM50 °FClear.10 mph58%30.12 "Hg10 mi
6:30 PM52 °FClear.10 mph50%30.12 "Hg10 mi
6:00 PM54 °FClear.10 mph47%30.09 "Hg10 mi
5:30 PM55 °FClear.14 mph44%30.09 "Hg10 mi
5:00 PM57 °FSunny.17 mph44%30.09 "Hg10 mi
4:30 PM59 °FSunny.14 mph42%30.09 "Hg10 mi
4:00 PM59 °FSunny.12 mph36%30.09 "Hg10 mi
3:30 PM59 °FSunny.14 mph39%30.07 "Hg10 mi
3:00 PM61 °FSunny.16 mph31%30.07 "Hg10 mi
2:30 PM63 °FPassing clouds.7 mph24%30.07 "HgN/A
2:00 PM61 °FPassing clouds.9 mph23%30.07 "HgN/A
1:30 PM59 °FPassing clouds.6 mph21%30.07 "HgN/A
1:00 PM59 °FSunny.10 mph25%30.07 "Hg10 mi
12:30 PM61 °FSunny.9 mph27%30.09 "Hg10 mi
12:00 PM59 °FSunny.9 mph25%30.09 "Hg10 mi
11:30 AM57 °FPassing clouds.3 mph21%30.09 "HgN/A
11:00 AM55 °FPassing clouds.8 mph26%30.09 "HgN/A
10:30 AM55 °FPassing clouds.9 mph31%30.09 "HgN/A
10:00 AM55 °FPassing clouds.10 mph28%30.07 "HgN/A
9:30 AM54 °FPassing clouds.7 mph30%30.07 "HgN/A
9:00 AM54 °FPassing clouds.10 mph38%30.07 "HgN/A
8:30 AM50 °FPassing clouds.9 mph40%30.07 "HgN/A
8:00 AM48 °FPassing clouds.8 mph46%30.07 "HgN/A
7:30 AM48 °FPassing clouds.7 mph43%30.07 "HgN/A
7:00 AM46 °FPassing clouds.7 mph46%30.04 "HgN/A
6:30 AM43 °FPassing clouds.7 mph53%30.04 "HgN/A
6:00 AM43 °FPassing clouds.8 mph49%30.01 "HgN/A
5:30 AM43 °FPassing clouds.12 mph49%29.98 "HgN/A
5:00 AM45 °FSunny.10 mph49%29.98 "Hg10 mi
4:30 AM45 °FPassing clouds.9 mph53%29.95 "HgN/A
4:00 AM46 °FClear.15 mph46%29.95 "HgN/A
3:30 AM46 °FClear.10 mph43%29.92 "HgN/A
3:00 AM50 °FClear.17 mph32%29.92 "HgN/A
2:30 AM50 °FClear.16 mph35%29.89 "HgN/A
2:00 AM52 °FClear.15 mph38%29.86 "HgN/A
Weather by CustomWeather, © 2014

See weather overviewHow to use our weather pages